Regional Weather Roundup
Issued by NWS Bismarck, ND

Home | Current Version | Previous Version | Text Only | Print | Product List | Glossary On
Versions: 1 2 3 4 5 6 7 8 9 10 11 12 13 14 15 16 17 18 19 20 21 22 23 24 25 26 27 28 29 30 31 32 33 34 35 36 37 38 39 40 41 42 43 44 45 46 47 48 49 50
000
ASUS43 KBIS 042310
RWRBIS

NWR BROADCAST TEXT
NATIONAL WEATHER SERVICE BISMARCK ND
500 PM CST WED MAR 04 2015

NOTE: "FAIR" INDICATES FEW OR NO CLOUDS BELOW 12,000 FEET WITH NO
SIGNIFICANT WEATHER AND/OR OBSTRUCTIONS TO VISIBILITY.


CITY           SKY/WX    TMP DP  RH WIND       PRES   REMARKS
WILLISTON      NOT AVBL
MINOT          NOT AVBL
MINOT AFB      SUNNY     -1 -10  65 NW12      30.32S WCI -18
BISMARCK       NOT AVBL
DICKINSON      NOT AVBL
GARRISON         N/A      0 -11  59 NW12      30.31S WCI -17
HETTINGER ARPT NOT AVBL
JAMESTOWN      NOT AVBL
$$

CITY           SKY/WX    TMP DP  RH WIND       PRES   REMARKS
GRAND FORKS    NOT AVBL
GRAND FORKS AF SUNNY      2 -11  53 NW12      30.35R WCI -15
DEVILS LAKE    NOT AVBL
FARGO          NOT AVBL
$$

CITY           SKY/WX    TMP DP  RH WIND       PRES   REMARKS
BUFFALO          N/A     16  -6  37 NW20      30.12S WCI  -1
BAKER          MOSUNNY   16  -5  39 NW15G21   30.19F WCI   1
$$

CITY           SKY/WX    TMP DP  RH WIND       PRES   REMARKS
$$




USA.gov is the U.S. government's official web portal to all federal, state and local government web resources and services.